Powrót do katalogu

FENGYUN 1C DEB

AktywnyPO
NORAD 31656·DEBRIS·🇨🇳 China

Wystrzelony May 10, 1999 z Taiyuan Satellite Launch Center

Loading…

Następne Przeloty (najbliższe 24 godziny)

TLE

ŚwieżeSource: Space-Track

Epoka: Sep 13, 2026, 12:30 UTC

1 31656U 99025CBN 26256.52126231  .00003658  00000-0  94491-3 0  9991
2 31656  99.1973 274.8558 0018752 317.0494 196.7064 14.50538295  4145

Śledź FENGYUN 1C DEB w czasie rzeczywistym z AllMySat

Download on the App Store